Location: Cran-Gévrier
(45.9039°N, 6.1012°E)
Time: 05:05:43
(UTC+00:00)

Cosmos 2333 Rocket - Pass Details

Date: 09 February 2023
Orbit: 837 x 864 km, 70.8° (Epoch: 29 March)

Event Time Altitude Azimuth Distance (km) Brightness Sun altitude
Rises 18:41:29 0° 236° (WSW) 3,386 6.3 -19.3°
Reaches altitude 10° 18:44:12 10° 247° (WSW) 2,458 5.6 -19.8°
Maximum altitude 18:49:10 31° 309° (NW) 1,441 3.9 -20.7°
Drops below altitude 10° 18:54:13 10° 11° (N) 2,485 4.5 -21.6°
Enters shadow 18:56:30 - 20° (NNE) 3,262 5.1 -22.0°
